sat.trackr.live / text

‹ back to catalog

STARLINK-3398

NORAD 51120 · 2022-005S

PAYLOAD ACTIVE UNKNOWN

§ Identity

Operator
Country
US
Launch date
2022-01-19
Launch site
AFETR
Launch vehicle
Mass (kg)
RCS (m²)

Purposes: comms

External: N2YO · Heavens-Above · Gunter

§ Orbital elements

Epoch: 2026-05-25T03:54:54.086400Z

Period
95.44 min
Inclination
53.2128°
Eccentricity
0.0001274
Mean motion
15.08840653 rev/d
Perigee alt
538.9 km
Apogee alt
540.6 km
Semi-major
6,917.9 km
B*
8.3713e-5
RAAN
305.8285°
Arg perigee
87.1784°
Mean anomaly
272.9354°
Rev number
24,042

§ Raw data

STARLINK-33981 51120U 22005S   26145.16312600  .00001045  00000+0  83713-4 0  99902 51120  53.2128 305.8285 0001274  87.1784 272.9354 15.08840653240426

JSON: /api/v1/satellites/51120 · /tle

For live sub-satellite position, see the globe view (requires WebGL).

§ Visibility from observer

Set your observer location to see the next 7 days of passes ≥ 10°. The values pass through the URL so the page stays shareable.

No JS? Fill the form by hand. The geolocation button needs JavaScript.